Location: Molino di Ancona
(43.6167°N, 13.3667°E)
Time: 11:28:02
(UTC+00:00)

Cosmos 1092 Rocket - Pass Details

Date: 15 December 2019
Orbit: 953 x 996 km, 83.0° (Epoch: 24 January)

Event Time Altitude Azimuth Distance (km) Brightness Sun altitude
Exits shadow 03:51:22 79° 254° (WSW) 976 3.8 -28.2°
Drops below altitude 10° 03:57:23 10° 179° (S) 2,673 6.4 -27.1°
Sets 03:59:52 0° 178° (S) 3,616 7.1 -26.7°
